WFOV (USA 332)

Last updated on Sat Oct 05 2024 00:02:41 GMT+0000 (Coordinated Universal Time)

1 52940U 22073A 24277.87549194 -.00000355 00000+0 00000+0 0 9995 2 52940 2.1020 86.6541 0001722 50.8813 309.9609 1.00268191 8130
UTC large
Height (km)
Speed (km/s)
/
Latitude / Longitude
Inclination (degrees)
Orbital Period (minutes)
Azimuth
Elevation
Range (km)
Doppler Factor

Next 0 passes for location: London (51.5072 / 0.1276)

Sorry there are no passes over London.